{"data":{"norad_id":58405,"intl_designator":"2023-180D","name":"STARLINK-30952","alt_names":[],"object_type":"PAYLOAD","status":"ACTIVE","operator":null,"country":"US","launch_date":"2023-11-22","launch_site_code":"AFETR","launch_vehicle":null,"mission":null,"orbit_class":"UNKNOWN","rcs_meters":null,"size_class":null,"mass_kg":null,"dimensions":null,"purposes":["comms"],"wikipedia_slug":null,"has_3d_model":false,"image_url":null,"decayed_at":null,"tle_current":{"epoch":"2026-09-20T01:50:04.394400Z","epoch_age_seconds":180239,"freshness":"STALE","line1":"1 58405U 23180D   26263.07643975 -.00000462  00000+0 -72478-5 0  9992","line2":"2 58405  43.0029  34.8716 0001582 271.2497  88.8174 15.27577549157246","mean_motion":15.27577549,"eccentricity":0.0001582,"inclination_deg":43.0029,"raan_deg":34.8716,"arg_perigee_deg":271.2497,"mean_anomaly_deg":88.8174,"bstar":-7.2478e-6,"rev_number":15724,"period_min":94.266899964762,"perigee_km":481.97099442376,"apogee_km":484.14187602666,"semimajor_km":6861.1934352252,"source":"CELESTRAK","updated_at":"2026-09-21T09:00:33.869963Z"}}}